星链-4273 (STARLINK-4273 )

导读 | 豆包AI

STARLINK-4273是美国太空探索技术公司(SpaceX)星链(Starlink)星座中的一颗低轨通信卫星,于北京时间2022年7月17日发射。它采用平板设计,配备单太阳电池阵与氪工质霍尔推进器,支持Ku/Ka波段通信与自主避撞,旨在为全球提供高速宽带互联网服务,设计使用寿命约5-7年,退役后会再入大气层焚毁。

Basic Information
目录编号:
53181
目录名称:
STARLINK-4273
国际标识:
2022-083BB
轨道中心:
EARTH
卫星名称:
星链-4273
卫星全名:
星链-4273 (STARLINK-4273 )
卫星状态:
已陨落 最后检测时间 2025-05-17
发射日期:
2022-07-17 UTC
国别 :
美国 (US)
星等 :
--
Orbit Information
数据来源 国际轨道数据
星历时间: 2025-05-17T09:02:50+0800
轨道信息已过期348天
半长轴: 6560.871km
偏心率: 0.0013341
轨道倾角: 53.151°
近地点辐角 284.517°
升交点赤经 310.761°
平近点角 173.777°
近地点: 173.983km
远地点: 191.489km
周期: 88.146分钟
每日圈数: 16.336559
Detailed Information
固有亮度:
5
最大亮度:
2.5
卫星平台:
Starlink v1.5
覆盖范围:
全球
运营商:
太空探索技术公司
运营商所在国:
美国
制造商(研发单位):
太空探索技术公司
制造商所在国:
美国
使用方式:
暂无
Satellite Introduction
星链(Starlink)计划是由太空探索技术公司(SpaceX)提出的一个巨型低轨卫星互联网星座项目,计划在2019年至2024年间在太空搭建由约1.2万颗卫星组成的“星链”网络,其中1584颗将部署在地球上空550千米处的近地轨道,并从2020年开始工作。该卫星仍在工作。